[[{"header":{"parameterUnit":"m.s-1","parameterCategory":1,"la1":30.2991,"la2":30.254,"lo1":-89.0895,"lo2":-89.0444,"dy":0.0017,"dx":0.0017,"nx":28,"ny":28,"refTime":"2025-12-11T09:00:00:Z","depth":0,"parameterNumber":2,"parameterNumberName":"U-component_of_WINDS"},"data":[0,0,0,0,0,0,0,0,0,0,0,0,0,0,0,0,0,0,0,0,0,0,0,0,0,0,0,0,0,0,0,0,0,0,0,0,0,0,0,0,0,0,0,0,0,0,0,0,0,0,0,0,0,0,0,0,0,0,0.5663,0.5663,0,0.5654,0.5654,0.5653,0.5653,0.5653,0.5653,0.5654,0.5643,0.5642,0.5642,0,0,0,0,0,0,0,0,0,0,0,0,0,0.568,0.5679,0.5663,0.5663,0.5663,0.5654,0.5654,0.5653,0.5653,0.5653,0.5653,0.5654,0.5643,0.5642,0.5642,0,0,0,0,0,0,0,0,0,0,0,0,0,0.5672,0.5679,0.5663,0.5662,0.5661,0.5654,0.5654,0.5653,0.5653,0.5653,0.5654,0.5654,0.5643,0.5642,0.5642,0.5634,0,0,0.564,0.564,0,0,0,0,0,0,0,0,0.5672,0.5671,0.5662,0.5662,0.5661,0.5655,0.5655,0.5647,0.5653,0.5656,0.5654,0.5654,0.5646,0.5646,0.5643,0.5634,0.5633,0.564,0.5639,0.5639,0.5639,0,0,0,0,0,0,0,0.5673,0.5671,0.5659,0.5662,0.5661,0.5661,0.566,0.5654,0.565,0.5656,0.5656,0.5655,0.5646,0.5644,0.5643,0.5633,0.564,0.5639,0.5639,0.5639,0.5618,0.5618,0,0,0,0,0,0,0.5674,0.5672,0.566,0.5659,0.5667,0.5661,0.566,0.5657,0.565,0.565,0.5655,0.5655,0.5645,0.5644,0.5643,0.5634,0.5639,0.5639,0.5638,0.5618,0.5618,0.5618,0,0,0,0,0,0,0.5674,0.5673,0.566,0.5665,0.5664,0.566,0.5657,0.5656,0.5654,0.565,0.5649,0.5653,0.5645,0.5644,0.5637,0.5634,0.5638,0.5638,0.5618,0.5618,0.5618,0.5617,0,0,0,0,0,0,0.5675,0.5673,0.567,0.5665,0.5664,0.5654,0.5657,0.5656,0.5653,0.5653,0.5648,0.5647,0.5645,0.5638,0.5636,0.5633,0.5637,0.5619,0.5618,0.5618,0.5617,0.5616,0.5616,0,0,0,0,0,0.5675,0.567,0.567,0.5668,0.566,0.5654,0.5653,0.5651,0.5653,0.565,0.5647,0.5647,0.5634,0.5637,0.5635,0.5632,0.5619,0.5618,0.5618,0.5617,0.5616,0.5616,0,0,0,0,0,0,0.5673,0.5669,0.5669,0.5662,0.5659,0.5654,0.565,0.565,0.5646,0.5646,0.5644,0.5643,0.5636,0.5633,0.5636,0.5625,0.5627,0.5626,0.5627,0.5626,0.5625,0.5626,0.5637,0,0,0,0,0,0.5672,0.5668,0.5664,0.5658,0.5657,0.5654,0.5651,0.565,0.5646,0.5645,0.5641,0.5637,0.5632,0.5629,0.5624,0.5617,0.5616,0.5614,0.5613,0.5613,0.5612,0.5608,0.5607,0.5616,0.5616,0.5616,0,0,0.5669,0.5666,0.5664,0.5658,0.5655,0.565,0.5652,0.5647,0.5644,0.5644,0.5637,0.5635,0.563,0.5623,0.562,0.562,0.5609,0.5612,0.5612,0.5611,0.5608,0.5607,0.5606,0.5616,0.5616,0.5616,0,0,0.5662,0.566,0.5654,0.5652,0.5648,0.5646,0.5645,0.5641,0.564,0.5633,0.5633,0.5629,0.562,0.5617,0.5614,0.5607,0.5607,0.5606,0.5603,0.5599,0.5598,0.5598,0.5595,0.5594,0.5605,0.5605,0.5605,0,0.5659,0.5653,0.5652,0.5647,0.5644,0.5645,0.564,0.5637,0.5631,0.563,0.5631,0.5621,0.5618,0.561,0.5608,0.5606,0.5605,0.5606,0.5599,0.5598,0.5597,0.5595,0.5594,0.5605,0.5605,0.5605,0.5605,0,0.5649,0.5645,0.5641,0.5637,0.5634,0.5629,0.5627,0.5624,0.5624,0.5622,0.5616,0.5612,0.5607,0.5605,0.5604,0.5598,0.5598,0.5599,0.5601,0.5596,0.5594,0.5593,0.5605,0.5605,0.5605,0.5605,0,0,0.5639,0.5635,0.5634,0.5632,0.5628,0.5625,0.562,0.5615,0.5613,0.561,0.5605,0.5599,0.56,0.5597,0.5596,0.5593,0.5588,0.5594,0.5594,0.5593,0.558,0.5579,0.5578,0.5588,0.5587,0.5587,0.558,0,0.5632,0.5624,0.5623,0.5616,0.5612,0.5613,0.5609,0.5606,0.5604,0.56,0.5599,0.5594,0.5596,0.5594,0.5591,0.5589,0.5585,0.5589,0.5583,0.5583,0.5584,0.5577,0.5576,0.557,0.558,0.5579,0.5579,0,0.5621,0.5618,0.5611,0.5608,0.5606,0.5603,0.5599,0.5595,0.5592,0.5592,0.5589,0.5589,0.5584,0.5586,0.558,0.5583,0.558,0.5579,0.5579,0.5578,0.5581,0.5576,0.5568,0.5567,0.5578,0.5578,0.5578,0,0.5615,0.5609,0.5604,0.5602,0.5599,0.5597,0.5595,0.5592,0.559,0.5586,0.5585,0.5581,0.5579,0.5575,0.5574,0.5576,0.5568,0.557,0.5567,0.5567,0.5564,0.5564,0.5555,0.5563,0.5563,0.5563,0.5563,0,0.5606,0.5602,0.5601,0.5598,0.5593,0.5592,0.5587,0.5586,0.5584,0.558,0.558,0.5577,0.5576,0.5572,0.5571,0.5566,0.5565,0.5564,0.5564,0.5564,0.5564,0.5562,0.5562,0.5563,0.5563,0.5563,0.5563,0,0.5598,0.5598,0.5592,0.559,0.5589,0.5586,0.5584,0.558,0.558,0.5575,0.5574,0.5572,0.5568,0.5567,0.5562,0.5561,0.5555,0.5555,0.5556,0.5556,0.5553,0.5553,0.5542,0.554,0.5549,0.5549,0.5549,0,0.5592,0.5589,0.5587,0.5585,0.5583,0.558,0.5578,0.5577,0.5575,0.5572,0.5569,0.5565,0.5562,0.5556,0.5554,0.555,0.555,0.5546,0.5549,0.555,0.555,0.555,0.555,0.5546,0.5546,0.5545,0.5545,0,0.5582,0.5582,0.5579,0.5577,0.5574,0.5572,0.5569,0.5568,0.5567,0.5565,0.5561,0.5558,0.5554,0.555,0.5546,0.5544,0.5545,0.5545,0.5544,0.5543,0.5544,0.5544,0.5554,0.5545,0.5545,0.5545,0.5545,0.5545,0.5575,0.5572,0.557,0.5567,0.5566,0.5564,0.5561,0.556,0.5557,0.5553,0.5554,0.5549,0.5547,0.5542,0.5541,0.5537,0.5538,0.5537,0.5536,0.5536,0.5536,0.5545,0.5537,0.5537,0.5537,0.5537,0.5537,0,0.5565,0.5564,0.5561,0.5558,0.5556,0.5557,0.5555,0.5553,0.5549,0.5548,0.5545,0.5541,0.5537,0.5536,0.5532,0.553,0.553,0.5529,0.5529,0.5529,0.5535,0.5536,0.5529,0.5529,0.5529,0.5529,0.5529,0.5529,0.5559,0.5555,0.5555,0.5549,0.5549,0.5545,0.5544,0.5542,0.554,0.5536,0.5533,0.5533,0.5531,0.5528,0.5524,0.5524,0.5523,0.5522,0.5521,0.5527,0.5528,0.5529,0.553,0.5521,0.5521,0.5515,0.5515,0.5515]},{"header":{"parameterUnit":"m.s-1","parameterCategory":1,"la1":30.2991,"la2":30.254,"lo1":-89.0895,"lo2":-89.0444,"dy":0.0017,"dx":0.0017,"nx":28,"ny":28,"refTime":"2025-12-11T09:00:00:Z","depth":0,"parameterNumber":3,"parameterNumberName":"V-component_of_WINDS"},"data":[0,0,0,0,0,0,0,0,0,0,0,0,0,0,0,0,0,0,0,0,0,0,0,0,0,0,0,0,0,0,0,0,0,0,0,0,0,0,0,0,0,0,0,0,0,0,0,0,0,0,0,0,0,0,0,0,0,0,-3.8486,-3.8487,0,-3.8629,-3.8631,-3.8633,-3.8583,-3.858,-3.8577,-3.8574,-3.8718,-3.8724,-3.8731,0,0,0,0,0,0,0,0,0,0,0,0,0,-3.8167,-3.8173,-3.8486,-3.8488,-3.8489,-3.8629,-3.8631,-3.8633,-3.8584,-3.858,-3.8576,-3.8572,-3.8715,-3.8723,-3.8732,0,0,0,0,0,0,0,0,0,0,0,0,0,-3.8308,-3.8175,-3.8485,-3.8482,-3.8483,-3.8629,-3.8631,-3.8633,-3.8584,-3.858,-3.8575,-3.8571,-3.8713,-3.8723,-3.8733,-3.889,0,0,-3.8764,-3.8768,0,0,0,0,0,0,0,0,-3.83,-3.8319,-3.848,-3.8482,-3.8484,-3.8584,-3.8571,-3.8719,-3.8586,-3.8546,-3.8574,-3.8568,-3.8677,-3.8689,-3.8727,-3.8897,-3.8903,-3.8765,-3.8771,-3.8775,-3.8778,0,0,0,0,0,0,0,-3.829,-3.8313,-3.8542,-3.8483,-3.8485,-3.8472,-3.8487,-3.8599,-3.8636,-3.8549,-3.8546,-3.8563,-3.8677,-3.8717,-3.873,-3.8905,-3.8764,-3.8773,-3.878,-3.8784,-3.9213,-3.9218,0,0,0,0,0,0,-3.828,-3.8305,-3.8538,-3.8547,-3.8378,-3.8482,-3.8498,-3.8556,-3.8635,-3.8642,-3.8567,-3.8561,-3.8702,-3.8718,-3.8735,-3.8925,-3.8775,-3.8785,-3.879,-3.9208,-3.9214,-3.922,0,0,0,0,0,0,-3.8273,-3.8301,-3.8532,-3.8425,-3.8454,-3.8492,-3.8558,-3.8562,-3.8602,-3.8649,-3.8655,-3.8602,-3.8699,-3.872,-3.8852,-3.893,-3.8789,-3.8798,-3.9202,-3.921,-3.9217,-3.9308,0,0,0,0,0,0,-3.8264,-3.8299,-3.8359,-3.8427,-3.846,-3.8648,-3.8563,-3.8568,-3.862,-3.8612,-3.8683,-3.869,-3.8697,-3.8838,-3.8863,-3.8941,-3.8806,-3.9195,-3.9205,-3.9215,-3.9298,-3.9318,-3.9335,0,0,0,0,0,-3.8253,-3.8378,-3.8363,-3.8391,-3.8536,-3.8653,-3.8671,-3.8678,-3.8626,-3.8688,-3.8718,-3.8688,-3.8917,-3.8851,-3.8879,-3.8962,-3.919,-3.9202,-3.9214,-3.929,-3.9314,-3.9334,0,0,0,0,0,0,-3.8317,-3.8387,-3.8371,-3.8521,-3.8582,-3.8644,-3.8722,-3.8703,-3.8778,-3.8768,-3.8772,-3.8788,-3.8925,-3.8956,-3.8882,-3.9119,-3.9046,-3.9064,-3.9094,-3.9117,-3.9135,-3.9125,-3.8815,0,0,0,0,0,-3.8349,-3.8439,-3.8494,-3.8622,-3.8654,-3.8683,-3.8734,-3.8734,-3.8796,-3.8821,-3.886,-3.8921,-3.9007,-3.9064,-3.9145,-3.9302,-3.9317,-3.9373,-3.9391,-3.9406,-3.9422,-3.9508,-3.9534,-3.9259,-3.9259,-3.9259,0,0,-3.8416,-3.8465,-3.8521,-3.8637,-3.8683,-3.8776,-3.8704,-3.8805,-3.8874,-3.8836,-3.8964,-3.8995,-3.9063,-3.9209,-3.9275,-3.9239,-3.9501,-3.9421,-3.9432,-3.944,-3.9523,-3.9549,-3.9572,-3.9267,-3.9266,-3.9265,0,0,-3.8585,-3.8631,-3.8743,-3.8792,-3.8864,-3.8883,-3.891,-3.8976,-3.8996,-3.9125,-3.9099,-3.918,-3.9327,-3.9378,-3.9422,-3.9612,-3.9588,-3.9639,-3.9735,-3.9819,-3.9841,-3.986,-3.9929,-3.9954,-3.9654,-3.9654,-3.9654,0,-3.8658,-3.8798,-3.8803,-3.8907,-3.8959,-3.893,-3.9044,-3.9091,-3.9186,-3.9222,-3.9181,-3.9367,-3.941,-3.9568,-3.9615,-3.9651,-3.9683,-3.9631,-3.9838,-3.9857,-3.9875,-3.9941,-3.9967,-3.966,-3.9659,-3.9659,-3.9658,0,-3.8885,-3.8982,-3.9064,-3.9159,-3.922,-3.9328,-3.9349,-3.941,-3.9405,-3.9428,-3.956,-3.9612,-3.9704,-3.9741,-3.9736,-3.9899,-3.9875,-3.9836,-3.9762,-3.9907,-3.9969,-3.9994,-3.9668,-3.9666,-3.9664,-3.9663,0,0,-3.9099,-3.9196,-3.9226,-3.9269,-3.9347,-3.9422,-3.9529,-3.9621,-3.9674,-3.974,-3.9831,-3.9957,-3.9922,-3.9973,-3.9973,-4.0047,-4.0197,-4.0,-4.0001,-4.0036,-4.0381,-4.0411,-4.044,-4.018,-4.0185,-4.0189,-4.0375,0,-3.9275,-3.9465,-3.9474,-3.9646,-3.9737,-3.9711,-3.9804,-3.9862,-3.9887,-3.9967,-3.9993,-4.0083,-4.0029,-4.006,-4.0132,-4.0163,-4.0266,-4.015,-4.0265,-4.0269,-4.025,-4.0472,-4.0504,-4.0677,-4.04,-4.0404,-4.0407,0,-3.9507,-3.9583,-3.9765,-3.9832,-3.987,-3.9954,-4.004,-4.0116,-4.0182,-4.0194,-4.0252,-4.0242,-4.0352,-4.0274,-4.0425,-4.0346,-4.0394,-4.0416,-4.0423,-4.0435,-4.0347,-4.0491,-4.0732,-4.0759,-4.0445,-4.0442,-4.0439,0,-3.9646,-3.9793,-3.9922,-3.996,-4.0041,-4.0101,-4.0137,-4.0198,-4.0253,-4.0327,-4.0363,-4.0448,-4.0495,-4.0562,-4.0575,-4.0517,-4.0727,-4.065,-4.0741,-4.0741,-4.0787,-4.0785,-4.1041,-4.0816,-4.0816,-4.0815,-4.0814,0,-3.9843,-3.9956,-3.9986,-4.0065,-4.0191,-4.02,-4.0324,-4.0355,-4.041,-4.0495,-4.0477,-4.0557,-4.0569,-4.0652,-4.0663,-4.0787,-4.0808,-4.0822,-4.0823,-4.0824,-4.0823,-4.0856,-4.0845,-4.0822,-4.082,-4.0819,-4.0818,0,-4.0021,-4.0045,-4.0184,-4.025,-4.0269,-4.0359,-4.0415,-4.0491,-4.0514,-4.0622,-4.0647,-4.0683,-4.078,-4.08,-4.0913,-4.0921,-4.1069,-4.1058,-4.1048,-4.1047,-4.1138,-4.113,-4.1426,-4.1466,-4.1213,-4.1216,-4.1218,0,-4.0145,-4.0232,-4.0308,-4.0364,-4.0404,-4.0495,-4.0551,-4.0563,-4.0623,-4.0705,-4.0771,-4.0866,-4.0942,-4.1098,-4.1133,-4.1221,-4.1213,-4.131,-4.1225,-4.1224,-4.1216,-4.1211,-4.1221,-4.1327,-4.133,-4.1332,-4.1334,0,-4.0365,-4.0373,-4.0456,-4.0545,-4.0614,-4.0683,-4.0749,-4.0796,-4.0816,-4.0884,-4.0984,-4.1044,-4.1161,-4.1256,-4.1343,-4.1379,-4.1361,-4.136,-4.1386,-4.1388,-4.138,-4.1387,-4.1094,-4.1353,-4.1351,-4.135,-4.1349,-4.1348,-4.0521,-4.0597,-4.0664,-4.0757,-4.0809,-4.0871,-4.0947,-4.098,-4.1063,-4.1161,-4.1162,-4.1271,-4.1335,-4.1451,-4.1493,-4.1578,-4.1547,-4.1585,-4.1594,-4.1604,-4.1613,-4.1365,-4.1594,-4.1593,-4.1593,-4.1592,-4.1592,0,-4.0741,-4.0782,-4.0869,-4.0963,-4.1037,-4.1014,-4.1086,-4.1149,-4.1246,-4.1308,-4.1384,-4.1499,-4.1591,-4.1635,-4.1726,-4.1786,-4.1779,-4.1809,-4.1806,-4.1815,-4.1634,-4.1604,-4.1813,-4.1813,-4.1813,-4.1813,-4.1813,-4.1813,-4.0864,-4.0993,-4.1009,-4.1164,-4.1204,-4.1312,-4.1356,-4.1414,-4.1463,-4.1593,-4.167,-4.1699,-4.1753,-4.1848,-4.1932,-4.1942,-4.1977,-4.2012,-4.2018,-4.1849,-4.1827,-4.1806,-4.1777,-4.2019,-4.2019,-4.2191,-4.2193,-4.2194]}]]